Home > Weather > Islamabad > Past weeks

Flag for Pakistan Past Weather in Islamabad, Pakistan — Yesterday and Last 2 Weeks

Now
88 °F

Scattered clouds.


Feels Like: 100 °F
Forecast: 76 / 95 °F
Wind: 9 mph from Southwest

Location: Islamabad Airport

Current Time: Jul 31, 2016 at 12:29:49 PM

Latest Report: Jul 31, 2016 at 12:00 PM


Visibility: 2 mi

Pressure: 29.71 "Hg (27.92 "Hg at 554m altitude)

Humidity: 70%

Dew Point: 77 °F

Location of IslamabadLocation

Past Weather in Islamabad — Graph

°F

Islamabad Temperature Yesterday

Maximum temperature yesterday: 88 °F (at 4:00 PM)
Minimum temperature yesterday: 72 °F (at 6:00 AM)
Average temperature yesterday: 81 °F

High & Low Weather Summary for the Past Weeks

 TemperatureHumidityPressure
High100 °F (Jul 21, 3:00 PM)100% (Jul 27, 2:00 AM)29.80 "Hg (Jul 27, 2:00 AM)
Low72 °F (Jul 22, 8:00 AM)42% (Jul 20, 3:00 PM)29.50 "Hg (Jul 21, 7:30 PM)
Average85 °F72%29.65 "Hg
* Reported Jul 16 11:00 AM — Jul 31 11:00 AM, Islamabad, Weather by CustomWeather, © 2016

Note: Actual official high and low records may vary slightly from our data, if they occured in-between our weather recording intervals... More about our weather records

Advertising

Islamabad Weather History for the Previous 24 Hours

Scroll right to see more
 ConditionsComfort  
Time TempWeatherWind HumidityBarometerVisibility
11:00 AM
Sun, Jul 31
84 °FBroken clouds.12 mph79%29.71 "Hg2 mi
10:00 AM82 °FBroken clouds.7 mph79%29.74 "Hg2 mi
9:00 AM82 °FBroken clouds.7 mph79%29.71 "Hg2 mi
8:30 AM79 °FBroken clouds.5 mph74%29.65 "Hg4 mi
7:30 AM79 °FBroken clouds.9 mph74%29.68 "Hg4 mi
7:00 AM79 °FBroken clouds.9 mph74%29.68 "Hg4 mi
6:30 AM79 °FBroken clouds.5 mph74%29.68 "Hg4 mi
6:00 AM79 °FBroken clouds.5 mph74%29.68 "Hg4 mi
5:00 AM79 °FPartly cloudy.5 mph74%29.65 "Hg4 mi
4:00 AM79 °FPassing clouds.7 mph74%29.65 "Hg4 mi
3:30 AM79 °FPassing clouds.9 mph74%29.65 "Hg4 mi
3:00 AM79 °FPassing clouds.9 mph74%29.68 "Hg4 mi
2:30 AM79 °FPassing clouds.12 mph74%29.68 "Hg4 mi
2:00 AM79 °FPassing clouds.12 mph74%29.68 "Hg4 mi
1:30 AM81 °FPassing clouds.No wind74%29.68 "Hg4 mi
1:00 AM81 °FPassing clouds.No wind74%29.68 "Hg4 mi
12:00 AM81 °FPassing clouds.No wind74%29.68 "Hg4 mi
11:30 PM
Sat, Jul 30
81 °FPassing clouds.5 mph79%29.68 "Hg4 mi
11:00 PM73 °FPassing clouds.5 mph100%29.68 "Hg4 mi
10:30 PM82 °FPassing clouds.5 mph74%29.62 "Hg4 mi
10:00 PM82 °FPassing clouds.5 mph74%29.62 "Hg4 mi
9:00 PM84 °FPassing clouds.7 mph74%29.62 "Hg4 mi
8:00 PM84 °FPassing clouds.7 mph74%29.62 "Hg4 mi
7:30 PM86 °FPassing clouds.7 mph70%29.62 "HgN/A
7:00 PM86 °FPassing clouds.7 mph70%29.62 "HgN/A
6:00 PM88 °FPassing clouds.7 mph66%29.62 "HgN/A
5:00 PM88 °FPassing clouds.7 mph66%29.62 "HgN/A
4:30 PM88 °FPassing clouds.7 mph66%29.62 "HgN/A
4:00 PM88 °FPassing clouds.7 mph66%29.62 "HgN/A
3:30 PM86 °FScattered clouds.14 mph70%29.65 "HgN/A
3:00 PM86 °FScattered clouds.14 mph70%29.65 "HgN/A
2:30 PM84 °FScattered clouds.12 mph66%29.65 "HgN/A
2:00 PM84 °FScattered clouds.12 mph66%29.65 "HgN/A
1:00 PM82 °FScattered clouds.7 mph70%29.68 "HgN/A
12:00 PM81 °FScattered clouds.9 mph74%29.71 "HgN/A
Weather by CustomWeather, © 2016

See weather overviewHow to use our weather pages